Salinas, CA

2:20 PM PDT on April 21, 2018 (GMT -0700)
Salinas Municipal

Weather History for KSNS - May, 2013

Change the Weather History Date:

Friday, May 3, 2013

  Actual Average Record
Temperature  
Mean Temperature 69 °F 58 °F  
Max Temperature 88 °F 68 °F 88 °F (2013)
Min Temperature 50 °F 49 °F 34 °F (1933)
Degree Days  
Heating Degree Days 0 7  
Month to date heating degree days 6 21  
Since 1 July heating degree days 2254 2410  
Cooling Degree Days 4 0  
Month to date cooling degree days 9 0  
Year to date cooling degree days 10 7  
Growing Degree Days 19 (Base 50)    
Moisture  
Dew Point 43 °F    
Average Humidity 49    
Maximum Humidity 83    
Minimum Humidity 15    
Precipitation  
Precipitation 0.00 in 0.01 in 0.45 in (1932)
Month to date precipitation 0.00 0.05  
Year to date precipitation 2.28 8.33  
Since 1 July precipitation 8.92  
Sea Level Pressure  
Sea Level Pressure 29.98 in    
Wind  
Wind Speed 6 mph (WNW)    
Max Wind Speed 17 mph    
Max Gust Speed 21 mph    
Visibility 9 miles    
Events      
T = Trace of Precipitation, MM = Missing Value Source: NWS Daily Summary

Daily Weather History Graph

Daily Weather History Graph

Search for Another Location

Airport or City:

Astronomy

May. 03, 2013 Rise Set
Actual Time 6:10 AM PDT 7:56 PM PDT
Civil Twilight 5:42 AM PDT 8:24 PM PDT
Nautical Twilight 5:08 AM PDT 8:58 PM PDT
Astronomical Twilight 4:32 AM PDT 9:34 PM PDT
Moon 2:27 AM PDT (5/3) 2:06 PM PDT (5/3)
Length of Visible Light 14h 42m
Length of Day
13h 46m
Waning Crescent, 36% of the Moon is Illuminated
May 3
Waning Crescent
May 9
New
May 17
First Quarter
May 24
Full
May 31
Last Quarter

Hourly Weather History & Observations

Time (PDT) Temp. Dew Point Humidity Pressure Visibility Wind Dir Wind Speed Gust Speed Precip Events Conditions
12:53 AM 57.0 °F 48.0 °F 72% 30.13 in 9.0 mi Calm Calm - N/A   Clear
1:53 AM 57.0 °F 48.0 °F 72% 30.11 in 9.0 mi Calm Calm - N/A   Clear
2:53 AM 54.0 °F 48.0 °F 80% 30.09 in 9.0 mi Calm Calm - N/A   Clear
3:53 AM 51.1 °F 45.0 °F 80% 30.08 in 10.0 mi Calm Calm - N/A   Clear
4:53 AM 52.0 °F 46.0 °F 80% 30.07 in 9.0 mi ESE 4.6 mph - N/A   Clear
5:53 AM 52.0 °F 44.1 °F 74% 30.06 in 9.0 mi Calm Calm - N/A   Clear
6:53 AM 54.0 °F 43.0 °F 66% 30.06 in 8.0 mi Calm Calm - N/A   Clear
7:53 AM 57.9 °F 43.0 °F 58% 30.04 in 8.0 mi ESE 6.9 mph - N/A   Clear
8:53 AM 66.0 °F 42.1 °F 42% 30.02 in 9.0 mi ESE 6.9 mph - N/A   Clear
9:53 AM 73.9 °F 41.0 °F 30% 30.01 in 10.0 mi ESE 3.5 mph - N/A   Clear
10:53 AM 81.0 °F 37.9 °F 21% 29.99 in 10.0 mi Calm Calm - N/A   Clear
11:53 AM 87.1 °F 33.1 °F 15% 29.97 in 10.0 mi West 4.6 mph - N/A   Clear
12:53 PM 81.0 °F 42.1 °F 25% 29.96 in 10.0 mi West 15.0 mph - N/A   Clear
1:53 PM 80.1 °F 42.1 °F 26% 29.95 in 10.0 mi WNW 12.7 mph - N/A   Clear
2:53 PM 78.1 °F 37.0 °F 23% 29.94 in 10.0 mi West 15.0 mph - N/A   Clear
3:53 PM 77.0 °F 30.9 °F 19% 29.92 in 10.0 mi WNW 13.8 mph - N/A   Clear
4:53 PM 73.9 °F 37.9 °F 27% 29.91 in 10.0 mi WNW 10.4 mph - N/A   Clear
5:53 PM 71.1 °F 43.0 °F 36% 29.90 in 9.0 mi WNW 10.4 mph - N/A   Clear
6:53 PM 66.9 °F 44.1 °F 44% 29.89 in 9.0 mi WNW 8.1 mph - N/A   Clear
7:53 PM 64.0 °F 44.1 °F 48% 29.88 in 9.0 mi NW 8.1 mph - N/A   Clear
8:53 PM 61.0 °F 46.0 °F 58% 29.88 in 9.0 mi WNW 5.8 mph - N/A   Clear
9:53 PM 57.9 °F 48.0 °F 70% 29.89 in 8.0 mi WNW 8.1 mph - N/A   Clear
10:53 PM 55.9 °F 50.0 °F 80% 29.87 in 7.0 mi WNW 3.5 mph - N/A   Clear
11:53 PM 55.0 °F 50.0 °F 83% 29.86 in 7.0 mi Calm Calm - N/A   Clear